Content
SEND FEEDBACK

Daily
Averages
Monthly
Summary
United States of America

ASHEVILLE, NORTH CAROLINA


Home > North America > United States > North Carolina
Elevation: 2240 feet     Latitude: 35 36N     Longitude: 082 32W

WEATHER
 
SELECT A DAY
Number of Records: 228,713;   Date Range: 1/1/95 - 9/29/14
 
SHARE

PRINT THIS DATA

[ ← Previous Day ]
WEATHER ALMANAC - JUNE 23, 2013
[ Next Day → ]
[ °C ]   °F
Weather ElementAverageHighLow
Temperature70 °F81 °F (3:54 pm)59 °F (6:54 am)
Dewpoint62.9 °F66.9 °F (6:54 pm)57 °F (6:54 am)
Humidity79.7 %100 % (11:29 pm)58 % (12:54 pm)
Barometer30.19 in30.28 in (11:29 pm)30.14 in (3:54 pm)
Wind Speed2.5 mph11.5 mph (8:54 pm)
Wind Gust19.6 mph (8:54 pm)
Weather ElementAverage
Visibility10 mi
Wind DirectionENE (55.2 °)

Weather ElementTotal
Precipitation0.01 in
Cooling Degree Days5 (Base 65)
Growing Degree Days20 (Base 50)
Averaged from 25 records on June 23, 2013
WEATHER CONDITIONS BREAKOUT
WIND DIRECTION BREAKOUT
WEATHER BY HOUR - JUNE 23, 2013
[ °C ]   °F
Local TimeTemperatureDewpointHumidityBarometerVisibilityWind DirectionWind SpeedGust SpeedPrecipitationEventsConditions
1:54 AM63.0 °F59.0 °F87 %30.18 in10.0 miCalmClear
2:54 AM62.1 °F59.0 °F90 %30.17 in10.0 miCalmClear
3:54 AM61.0 °F59.0 °F93 %30.16 in10.0 miCalmClear
4:54 AM60.1 °F57.9 °F93 %30.16 in9.0 miCalmClear
5:54 AM60.1 °F57.9 °F93 %30.17 in10.0 miCalmClear
6:54 AM59.0 °F57.0 °F93 %30.20 in10.0 miCalmClear
7:54 AM62.1 °F60.1 °F93 %30.22 in10.0 miCalmClear
8:54 AM68.0 °F61.0 °F78 %30.23 in10.0 miCalmClear
9:54 AM72.0 °F64.0 °F76 %30.22 in10.0 miCalmClear
10:54 AM75.9 °F64.0 °F67 %30.22 in10.0 miSouth (190°)4.6 mph0.01 inPartly Cloudy
11:54 AM78.1 °F64.0 °F62 %30.21 in10.0 miVariable3.5 mphScattered Clouds
12:54 PM78.1 °F62.1 °F58 %30.20 in10.0 miSE (140°)3.5 mph0.00 inRainLight Rain
1:54 PM77.0 °F63.0 °F62 %30.19 in10.0 miSSW (210°)3.5 mph0.00 inOvercast
2:54 PM78.1 °F64.0 °F62 %30.17 in10.0 miSSE (160°)5.8 mph0.00 inScattered Clouds
3:54 PM81.0 °F66.0 °F60 %30.14 in10.0 miVariable5.8 mphScattered Clouds
4:54 PM81.0 °F64.9 °F58 %30.14 in10.0 miVariable4.6 mphClear
5:54 PM75.9 °F63.0 °F64 %30.14 in10.0 miSSE (160°)6.9 mphScattered Clouds
6:54 PM75.0 °F66.9 °F76 %30.16 in10.0 miSSE (160°)6.9 mphMostly Cloudy
7:54 PM73.0 °F64.9 °F76 %30.16 in10.0 miCalm0.00 inPartly Cloudy
8:54 PM71.1 °F66.0 °F84 %30.17 in10.0 miSouth (170°)11.5 mph19.6 mphMostly Cloudy
9:54 PM69.1 °F66.0 °F90 %30.18 in10.0 miSouth (190°)6.9 mphMostly Cloudy
10:54 PM68.0 °F64.9 °F90 %30.19 in10.0 miCalm0.00 inPartly Cloudy
11:29 PM66.2 °F66.2 °F100 %30.28 in10.0 miCalmMostly Cloudy
11:39 PM68.0 °F66.2 °F94 %30.28 in10.0 miCalmOvercast
11:54 PM68.0 °F66.0 °F93 %30.21 in10.0 miCalmMostly Cloudy
Hourly data recorded from KAVL, located miles away from Asheville, North Carolina







STORIES FROM OUR PARTNERS